Temp_Advection
nan nan nan nan nan nan nan nan nan nan nan nan nan nan nan nan nan nan nan nan nan nan nan nan nan nan nan nan nan nan nan nan nan nan nan nan nan nan nan nan nan nan nan nan nan nan nan
nan -1 -0 0 -0 -0 0 0 0 -0 0 0 -0 -0 -0 0 0 0 -0 0 0 0 -0 -0 -0 0 0 -1 -0 -0 -0 0 0 -0 -0 -1 -1 -1 -1 -0 -1 -1 0 -0 -1 -1 nan
nan -0 0 -0 -0 -0 -0 0 0 0 -0 0 0 -0 -0 0 0 0 -0 0 0 0 -0 -0 -0 0 -0 -1 -0 0 0 0 -0 -0 -0 -0 0 -1 -0 -0 -1 1 -0 -0 -1 -1 nan
nan 0 1 0 -0 -0 -0 -0 0 0 0 0 0 0 -0 0 0 -0 -0 0 0 0 0 -0 0 0 -0 -0 0 0 0 -0 -0 0 -0 -0 -0 -0 -1 -0 -1 -0 0 -0 -2 -1 nan
nan -0 0 0 -0 -0 -0 0 -0 -0 0 0 0 0 0 0 -0 -0 -0 -0 0 0 0 0 0 -0 -0 -0 -0 -0 0 -0 -0 -0 0 -0 -0 -0 -0 0 -0 -0 0 -1 -1 -1 nan
nan 0 0 0 -0 -0 0 0 0 0 -0 0 0 0 0 0 0 0 0 -0 0 0 0 0 -0 -0 -1 -0 -0 0 -0 -0 -0 -0 -0 -0 0 0 0 0 -1 -0 -1 -1 -1 -1 nan
nan -0 0 0 0 -0 -0 0 -0 -0 -0 0 0 0 0 0 0 0 0 -0 0 0 -0 -0 -0 -0 -0 0 -0 -0 -0 -0 -0 0 -0 0 0 -0 -1 -1 -1 -1 -0 -0 -1 -0 nan
nan -1 0 0 0 -0 -0 0 0 -0 -0 0 0 0 0 0 0 0 0 -0 -0 0 -0 -0 -0 -0 0 -0 -0 -0 -0 -0 -0 -0 -0 1 -1 -2 -1 -0 -0 -0 0 -1 -1 -0 nan
nan -2 -1 0 -0 -0 -0 -0 -0 -0 0 0 0 0 0 0 0 0 0 -0 -0 0 0 -0 0 -0 0 0 -0 0 -0 -0 -0 -0 0 -0 -2 -1 -0 0 -0 0 -0 -1 -1 -0 nan
nan -2 -2 -1 -0 -0 -0 -0 -0 -0 0 0 0 0 0 0 -0 -0 0 -0 0 0 -0 -0 0 -0 1 0 -0 -1 -0 -0 0 -0 -0 -0 -1 0 0 -0 -0 -0 -1 0 -0 0 nan
nan -2 -2 -1 -1 -0 -0 -0 -0 0 0 0 0 0 0 0 -0 0 -0 0 0 -0 -0 -0 -0 0 0 0 0 -0 0 -0 -0 -0 0 -0 -0 -0 0 -1 0 -1 0 1 0 -0 nan
nan -1 -2 -1 -1 -1 -0 -0 -0 0 0 0 0 0 0 0 0 -0 0 0 0 0 -0 0 -0 -0 -0 -0 -0 -0 -0 0 0 0 0 -0 -0 0 0 1 -0 -1 1 -0 -0 -0 nan
nan -1 -1 -1 -1 -1 -0 -0 -0 -0 0 0 0 0 0 0 -0 0 0 0 0 -1 0 0 0 -0 0 -0 0 -0 -0 0 0 0 0 0 -1 0 0 -0 -1 0 0 0 -0 -0 nan
nan -1 -1 -0 -1 -1 -0 -0 -0 -0 0 0 0 0 0 0 -0 0 -0 0 -1 -0 0 -0 0 0 0 0 -0 -0 -0 0 -0 0 0 -0 -0 -0 -1 -0 -1 1 1 -0 0 -0 nan
nan -1 -1 -1 0 -1 -2 -1 -0 0 -0 0 0 0 0 -0 0 0 -0 -0 -0 0 0 0 -0 -0 -0 -0 -0 -1 -0 -0 -1 -0 -0 -0 -0 -0 -0 -1 0 0 -0 -1 -1 -0 nan
nan -1 -1 -1 0 0 -3 -1 -0 -0 -0 0 0 0 -0 -0 0 0 -0 -1 -0 0 -0 0 -1 -1 -1 -0 -0 -1 -1 -0 -0 -0 -0 0 -0 0 0 -0 -0 -0 -0 -0 -1 0 nan
nan -1 -1 -1 0 0 -3 -1 -0 -0 0 -0 0 0 0 0 -0 -0 -0 -0 -0 0 -0 -0 -1 -0 -0 -1 -1 -1 -0 -0 -1 -0 -1 -0 -0 -0 -0 -0 -0 -0 -0 -1 -0 -0 nan
nan -0 -1 -1 -0 -0 -1 -1 -1 0 0 0 0 -0 0 0 -0 -0 -0 -0 0 -0 -1 -0 -1 -1 -1 -1 -0 -0 -0 -0 -1 -0 -0 -0 -0 -0 -0 -0 -0 -0 -0 -1 -0 0 nan
nan -0 -1 -0 -0 -1 -1 -1 -1 0 -0 0 -0 -0 -0 0 -0 -0 -0 0 -0 -0 -0 -0 -1 -1 -0 0 -0 -0 -1 -1 -1 -1 -1 -0 -0 -0 0 -0 0 -0 -0 -0 -0 -0 nan
nan -0 -1 -1 -0 -0 -1 -1 -0 0 0 0 -0 -0 -0 -0 -0 -0 -0 0 -0 -0 -1 -1 -1 -1 0 0 -0 -0 -0 -0 -0 -1 -1 0 -0 -0 -0 -0 -1 -0 -0 -0 -0 0 nan
nan -0 -1 -1 -1 -1 -1 -1 -0 0 0 0 0 -0 -0 -0 -0 -0 -0 0 -0 -0 -1 -1 -0 -0 0 0 -0 -0 -0 0 0 0 -1 -0 -0 -1 0 -1 -1 -1 -0 -0 -0 -0 nan
nan -1 -0 -1 -1 -1 -1 -1 -1 -0 0 0 0 -0 -0 -0 -1 -0 -0 -0 -0 -0 -0 -0 -0 -0 0 -0 -0 -0 -0 -0 -0 -0 -0 -0 -0 -0 0 0 -0 0 -0 0 -0 -0 nan
nan -0 -0 -0 -1 -1 -1 -1 -0 0 0 -0 -0 0 0 0 -0 -0 -0 -0 -0 -0 -0 -1 -1 -0 -0 -1 -0 -0 0 0 -0 -0 -0 0 -0 -0 0 0 -0 0 0 -0 -0 -0 nan
nan -0 -0 -0 -0 -0 -1 -1 -1 0 0 -0 -0 0 0 -0 -0 -0 -0 -0 1 0 -0 -0 -0 -0 -0 0 0 -0 -1 -0 -0 0 0 -0 -0 -0 -0 -0 0 -0 -0 -0 -0 0 nan
nan -0 -0 -0 -0 -0 -0 -1 -1 -1 -0 0 0 0 0 -0 -0 -0 0 -0 -0 0 0 -0 0 0 -0 -1 0 -0 -0 -0 -0 -0 -1 -0 -0 -0 0 -0 -0 0 -0 -0 0 -0 nan
nan -0 -0 -1 -0 -0 -1 -1 -0 -0 0 0 0 0 0 0 -0 -0 -0 -0 0 0 0 0 0 0 0 -0 0 0 -0 -0 0 -0 -0 0 -0 -0 -0 0 -0 0 -0 -0 -0 0 nan
nan -0 -0 -0 -0 -0 -1 -1 -1 -1 -0 0 0 0 0 -0 -1 -0 0 -0 0 0 -0 -0 0 0 1 -0 0 -0 -0 -0 -0 -0 -0 0 0 0 -0 -0 -0 0 0 -0 0 0 nan
nan -0 -0 -0 -0 -0 -0 -1 -1 -0 -0 0 0 -0 -0 -0 -0 0 0 0 0 -0 -0 -0 -0 -0 -0 -0 0 -0 0 -0 -0 -0 -0 -0 -0 -0 -0 -0 -0 0 0 0 0 0 nan
nan nan nan nan nan nan nan nan nan nan nan nan nan nan nan nan nan nan nan nan nan nan nan nan nan nan nan nan nan nan nan nan nan nan nan nan nan nan nan nan nan nan nan nan nan nan nan
Wind_Speed
22 19 21 21 21 18 20 20 19 19 17 14 15 14 13 10 9 8 8 8 6 7 10 11 10 9 12 12 18 5 1 6 6 4 17 16 18 17 16 11 21 23 19 28 27 27 28
24 20 20 23 23 21 20 20 19 17 16 16 16 15 14 12 9 8 9 8 8 8 7 10 11 9 12 16 11 16 12 9 4 3 10 17 17 18 22 21 19 13 27 26 27 26 23
27 25 22 23 23 22 20 20 19 17 15 17 18 16 16 14 12 9 8 8 9 10 8 9 12 12 13 18 6 13 17 17 14 10 10 11 19 19 10 15 17 25 16 16 25 26 17
30 28 24 23 21 22 21 22 20 18 17 16 16 16 15 15 13 11 8 9 9 9 10 11 9 8 10 12 19 12 9 11 21 16 16 16 11 16 23 13 13 7 11 14 19 16 24
32 31 26 22 22 22 22 23 22 19 17 16 16 16 15 13 14 12 10 10 11 9 12 11 8 9 9 11 21 22 19 13 9 9 9 15 15 16 13 11 7 10 13 22 15 18 16
28 33 27 22 22 24 23 23 23 22 19 17 15 15 17 14 13 13 12 10 9 11 11 7 10 5 16 14 11 15 21 22 18 15 12 11 11 10 11 12 17 12 12 13 18 17 18
28 30 29 25 25 25 25 23 22 21 19 18 14 15 17 15 13 13 13 10 8 4 17 13 9 12 2 9 7 12 16 17 17 16 14 16 8 18 21 21 18 18 19 16 16 16 18
30 29 30 27 26 26 24 23 20 18 17 17 14 14 16 14 12 14 13 9 9 4 8 30 27 21 24 6 9 15 14 17 20 16 15 14 19 25 17 18 18 20 20 19 16 17 21
27 26 24 30 25 26 26 24 21 19 16 15 15 13 15 12 13 16 18 17 16 14 7 8 31 31 22 16 18 15 22 24 14 18 19 19 23 16 19 18 20 21 23 19 17 18 8
30 29 28 19 24 26 26 26 24 21 18 15 14 12 12 12 12 15 16 9 17 14 4 5 7 9 27 10 8 25 19 23 13 20 17 15 21 20 19 22 20 21 23 20 18 20 7
32 31 32 22 23 28 27 27 25 22 20 17 14 11 12 13 5 11 9 7 3 4 5 8 6 5 7 14 3 11 33 27 18 17 11 10 14 20 23 23 20 22 13 17 22 11 4
34 30 32 29 19 31 27 26 26 22 21 18 15 13 12 14 15 9 9 3 7 2 8 5 6 8 8 12 8 9 27 26 21 17 17 15 16 15 15 20 20 21 13 14 17 8 7
35 34 32 27 27 17 16 24 25 23 20 18 17 16 15 12 14 18 9 16 2 6 2 5 4 7 13 11 11 8 18 20 9 7 10 6 19 10 3 5 20 20 11 9 7 7 4
34 36 30 26 23 14 11 28 25 24 21 19 18 21 17 17 12 14 20 2 6 6 6 3 4 8 8 7 7 15 9 16 18 12 2 10 9 17 12 8 11 21 16 3 4 3 5
36 33 30 24 24 10 29 26 25 23 23 19 17 24 22 22 19 19 17 5 5 4 4 5 5 6 5 5 6 14 14 7 11 18 8 5 8 10 12 14 10 5 11 19 6 8 4
36 34 32 24 25 31 32 16 24 25 23 20 26 26 27 23 26 23 6 11 6 6 7 5 9 11 8 11 8 12 12 7 16 17 12 2 5 6 8 12 16 9 11 12 7 6 6
37 35 32 30 25 24 33 16 21 27 22 22 26 10 12 26 29 16 7 7 7 16 9 8 11 10 11 9 14 12 9 12 13 15 14 6 6 3 2 10 16 7 6 9 3 2 6
37 39 34 34 23 29 28 12 22 18 21 23 18 3 21 28 6 4 7 5 4 9 20 10 13 19 12 12 15 10 13 7 18 14 10 11 4 3 8 3 12 5 10 17 2 2 2
36 39 35 33 23 23 22 20 27 25 28 32 16 6 25 35 5 6 6 6 7 3 8 8 8 11 7 7 7 14 14 13 19 11 16 11 5 1 5 8 4 6 5 3 5 3 3
34 37 38 35 31 23 28 26 19 30 29 28 10 5 8 18 8 6 10 7 6 16 18 16 14 16 7 8 11 1 10 6 13 16 15 2 4 7 4 6 10 5 4 5 5 1 2
33 35 38 36 33 27 28 22 10 28 29 33 9 5 9 5 9 10 5 4 7 5 15 18 8 11 9 7 7 11 12 6 7 13 11 5 5 9 6 18 15 12 11 8 5 4 2
34 32 36 35 32 33 24 18 16 29 27 26 11 4 10 2 15 16 15 7 9 6 4 6 12 9 17 10 8 11 10 7 6 6 8 6 5 10 9 6 10 9 12 12 9 5 6
33 30 34 35 32 31 24 21 3 25 30 9 12 11 2 4 7 7 6 9 10 12 11 21 13 14 11 13 9 15 18 16 8 6 8 5 3 6 4 3 6 3 8 11 8 8 7
32 29 32 32 32 34 25 23 20 20 24 22 14 9 5 3 6 8 12 14 17 14 16 8 21 14 4 4 5 9 14 12 5 2 7 7 2 2 2 2 1 2 2 3 11 7 9
30 27 32 32 32 32 30 20 23 10 23 24 20 11 5 2 5 10 13 2 1 5 11 13 8 6 10 9 2 5 2 4 4 5 6 8 3 1 2 3 5 4 2 1 5 6 6
29 27 30 31 34 33 34 22 20 14 17 20 25 22 5 2 2 6 5 3 5 3 3 8 9 6 7 2 2 4 3 3 3 2 5 3 6 3 4 1 2 2 1 6 4 2 6
27 25 27 29 29 30 31 25 22 8 21 20 18 24 13 3 11 11 2 2 5 2 1 4 6 3 10 3 4 3 4 7 6 6 5 4 3 4 2 2 5 3 4 2 4 3 5
26 25 28 30 28 29 29 23 17 4 19 18 22 18 19 6 7 7 3 4 5 4 2 6 6 3 2 4 2 2 3 6 5 7 7 5 7 4 3 2 6 9 4 3 3 3 4
25 24 27 29 27 27 27 20 19 6 19 19 21 19 17 9 5 8 10 12 15 16 2 17 4 10 7 3 2 2 2 3 4 4 7 6 5 5 7 5 1 7 5 9 7 11 14
Wind_Direction
288 283 285 278 268 278 284 293 294 291 287 283 284 273 269 277 274 282 291 297 294 285 268 251 242 227 204 210 232 239 279 102 25 255 215 227 237 242 244 251 238 242 243 241 241 253 268
301 278 278 282 263 269 277 285 294 299 284 280 283 278 262 263 266 275 288 290 285 273 271 250 239 222 206 236 241 236 236 249 280 284 224 230 238 246 268 247 257 254 243 257 264 248 238
304 297 273 276 264 261 272 276 282 292 296 278 280 280 263 256 259 266 284 289 285 276 267 256 242 235 233 229 237 225 237 244 252 244 266 232 244 266 249 263 293 251 269 243 245 249 241
304 300 288 272 262 256 267 273 275 280 287 289 279 274 269 251 259 258 266 274 268 265 260 260 248 231 247 250 230 235 220 245 247 250 242 245 264 268 265 285 316 282 238 250 239 240 242
295 299 292 271 258 257 263 268 273 273 275 281 282 273 271 255 249 251 256 262 256 258 255 253 252 227 257 259 226 225 222 218 224 244 249 243 246 257 264 253 269 237 234 224 243 237 229
284 290 291 274 254 257 260 261 266 270 272 275 279 271 267 264 242 245 248 270 270 244 253 232 235 238 247 230 228 226 219 223 237 250 265 226 225 235 220 211 223 224 225 239 221 225 230
298 276 282 282 256 254 259 261 260 263 263 266 272 264 258 261 235 235 241 266 273 247 211 196 208 212 143 242 221 212 207 210 222 234 230 227 208 222 218 218 231 256 244 233 241 216 232
311 295 272 273 261 254 253 254 256 258 258 260 264 261 250 249 234 233 233 222 216 232 275 230 238 234 231 281 228 215 189 198 207 219 216 232 228 227 229 236 227 235 251 264 239 233 219
305 300 285 272 261 251 249 245 248 253 253 255 259 259 247 230 223 229 231 237 254 266 258 212 229 236 230 221 229 213 195 203 206 217 214 217 237 234 239 236 240 227 236 241 244 234 242
320 297 298 301 254 250 249 244 243 246 249 247 250 251 227 209 224 230 237 244 261 279 273 210 213 236 221 200 251 227 221 205 223 230 220 235 245 242 235 233 235 239 229 246 246 232 195
319 312 293 294 279 247 246 245 244 241 242 241 237 226 218 201 178 185 207 223 190 186 278 122 165 196 212 183 24 225 204 212 226 222 213 226 227 233 232 240 228 246 228 231 250 256 166
320 314 314 283 275 256 242 239 242 238 234 234 225 208 197 189 201 211 198 200 139 125 248 157 136 179 177 197 212 312 190 208 226 240 238 245 250 236 237 229 248 262 223 281 240 236 206
325 322 313 289 278 254 249 231 240 236 228 227 215 203 198 192 203 218 195 150 125 232 84 183 184 184 215 202 215 224 190 204 204 206 218 231 250 229 148 245 229 221 187 231 226 196 207
327 325 318 304 274 262 299 227 226 234 223 217 213 203 188 172 204 186 160 133 226 236 203 117 187 205 217 208 209 216 210 208 220 232 319 222 239 208 176 196 230 207 197 239 186 188 137
331 328 323 314 258 319 334 227 221 229 217 213 216 198 191 180 201 176 156 207 231 239 182 179 155 209 204 197 234 208 204 204 214 207 217 243 223 158 184 214 201 174 201 233 278 183 104
333 333 330 319 297 273 318 227 223 222 208 201 194 192 203 193 192 178 189 233 226 239 145 187 213 198 191 183 204 201 212 222 217 221 191 210 294 165 201 220 200 213 174 218 225 187 145
337 334 326 329 305 289 303 226 227 225 195 197 192 182 211 212 186 176 218 221 251 241 188 197 231 204 224 182 209 199 207 237 192 196 150 180 229 326 232 189 182 175 210 231 251 202 128
338 338 329 340 316 291 303 266 226 201 194 198 173 171 169 168 180 193 218 205 231 243 210 242 260 270 211 197 203 215 239 226 177 151 186 184 275 237 255 214 199 179 204 211 240 28 45
336 337 337 339 336 309 305 327 221 194 194 186 157 139 177 178 195 204 224 225 225 266 204 211 249 245 251 209 195 208 223 208 161 150 176 172 206 218 342 168 123 204 226 283 296 336 171
329 335 339 340 340 317 301 341 198 192 191 189 162 171 157 196 221 211 211 215 220 224 244 241 262 251 237 243 197 242 227 177 171 182 172 358 214 243 280 123 127 178 211 270 233 353 9
330 334 337 341 338 317 322 335 217 195 188 186 175 201 175 179 213 232 190 223 209 245 218 198 247 242 253 222 216 237 224 185 164 190 150 234 248 250 33 134 152 162 188 240 265 229 59
331 332 335 336 339 334 315 339 316 198 188 187 150 186 168 195 203 209 226 217 208 214 264 227 227 230 233 214 200 210 189 223 177 178 171 224 296 316 72 52 155 165 181 198 225 234 258
329 328 332 336 334 337 318 325 227 189 189 180 175 188 152 204 197 195 213 222 223 208 245 250 272 235 273 219 259 233 192 209 151 176 180 167 279 328 46 70 60 352 200 195 207 210 212
328 326 329 333 337 336 327 305 358 195 201 208 192 170 158 246 247 224 226 213 214 221 226 254 226 197 252 51 123 83 54 57 50 217 184 189 191 311 338 85 139 195 11 248 207 205 211
326 326 329 330 336 334 327 302 329 231 205 214 209 193 170 245 287 278 285 126 127 273 211 220 218 193 259 359 184 123 104 22 17 11 347 182 164 320 123 260 313 139 32 7 183 239 212
326 324 329 329 332 334 336 294 358 197 205 216 223 221 173 93 237 341 350 67 288 209 227 184 226 205 186 265 177 156 170 118 189 309 346 82 95 43 3 143 235 88 17 320 43 316 333
323 322 326 327 329 331 334 298 331 276 209 214 226 227 220 200 264 284 302 144 274 218 106 128 138 122 152 218 204 168 163 160 164 171 163 145 124 172 221 324 312 128 143 311 113 244 333
322 322 325 327 332 329 327 305 316 294 209 216 229 223 208 199 266 268 273 213 239 238 192 165 106 199 147 196 152 248 154 192 143 153 163 158 169 181 123 186 270 141 85 158 168 96 79
319 317 320 324 326 327 327 308 291 183 212 215 222 224 221 223 261 253 289 273 252 252 230 178 278 160 167 143 203 240 230 132 147 168 185 172 198 168 189 202 191 146 92 126 135 130 115
Height
1482 1482 1482 1480 1480 1480 1480 1479 1478 1477 1477 1477 1477 1477 1477 1477 1477 1477 1476 1476 1476 1477 1478 1479 1479 1480 1481 1482 1480 1481 1482 1483 1483 1483 1486 1490 1492 1492 1489 1485 1486 1481 1480 1481 1481 1480 1477
1478 1477 1477 1476 1475 1476 1475 1475 1475 1473 1472 1473 1474 1474 1474 1475 1475 1475 1475 1474 1475 1477 1476 1477 1478 1479 1479 1478 1477 1480 1481 1482 1484 1485 1485 1488 1489 1489 1487 1484 1482 1479 1479 1477 1476 1474 1475
1474 1472 1471 1471 1470 1471 1471 1471 1470 1470 1469 1469 1470 1470 1471 1473 1473 1473 1473 1473 1473 1475 1475 1475 1476 1476 1476 1473 1474 1476 1478 1480 1482 1483 1484 1485 1487 1488 1485 1485 1481 1477 1481 1475 1470 1469 1469
1469 1467 1465 1465 1465 1466 1466 1466 1466 1466 1466 1465 1466 1467 1468 1469 1470 1471 1471 1471 1472 1473 1475 1475 1475 1476 1470 1468 1470 1473 1475 1476 1478 1479 1482 1484 1484 1485 1485 1484 1482 1479 1477 1482 1461 1463 1464
1463 1461 1459 1459 1459 1460 1461 1462 1461 1461 1461 1462 1462 1463 1465 1466 1467 1468 1469 1469 1469 1470 1473 1474 1474 1475 1468 1462 1464 1466 1472 1474 1476 1478 1479 1482 1485 1485 1484 1485 1488 1476 1471 1468 1467 1459 1460
1455 1455 1454 1453 1453 1454 1455 1456 1456 1456 1457 1457 1458 1459 1461 1462 1464 1466 1467 1466 1466 1467 1470 1472 1473 1476 1463 1458 1460 1462 1466 1471 1474 1476 1478 1480 1481 1481 1479 1479 1471 1466 1469 1459 1460 1456 1455
1450 1447 1447 1447 1447 1448 1449 1450 1451 1451 1452 1453 1454 1454 1457 1459 1460 1463 1465 1466 1468 1467 1464 1461 1461 1457 1456 1456 1458 1459 1462 1467 1471 1473 1474 1473 1477 1467 1464 1466 1466 1465 1460 1460 1451 1451 1452
1443 1441 1439 1440 1440 1441 1442 1444 1445 1446 1447 1448 1449 1450 1452 1455 1457 1460 1462 1462 1462 1462 1458 1455 1456 1456 1453 1457 1456 1457 1461 1465 1466 1466 1468 1471 1464 1452 1462 1465 1467 1465 1464 1461 1451 1444 1448
1438 1435 1434 1429 1431 1433 1435 1437 1439 1441 1442 1443 1444 1445 1448 1450 1454 1456 1457 1459 1459 1460 1457 1448 1447 1448 1450 1453 1450 1451 1456 1457 1457 1460 1460 1461 1442 1459 1461 1461 1462 1457 1461 1458 1453 1442 1439
1433 1429 1426 1422 1421 1425 1428 1431 1432 1435 1437 1438 1439 1441 1444 1446 1453 1452 1454 1457 1457 1459 1455 1440 1441 1438 1443 1446 1446 1447 1449 1454 1453 1451 1456 1456 1451 1453 1453 1455 1456 1455 1447 1454 1455 1451 1452
1429 1425 1420 1417 1415 1416 1420 1424 1426 1429 1431 1433 1435 1437 1439 1444 1446 1449 1453 1454 1455 1459 1448 1435 1436 1435 1436 1440 1441 1438 1440 1445 1444 1446 1450 1447 1444 1446 1448 1446 1449 1445 1449 1448 1447 1444 1446
1424 1418 1414 1411 1409 1409 1410 1415 1419 1422 1424 1427 1430 1432 1436 1440 1443 1446 1449 1452 1456 1462 1442 1430 1433 1434 1435 1437 1438 1435 1436 1441 1444 1445 1443 1442 1443 1442 1442 1442 1449 1447 1450 1451 1447 1451 1449
1420 1413 1408 1404 1403 1400 1400 1405 1412 1415 1417 1421 1424 1427 1431 1434 1438 1442 1446 1452 1456 1445 1428 1429 1429 1430 1430 1431 1435 1436 1433 1436 1440 1446 1445 1448 1439 1439 1444 1446 1446 1446 1450 1456 1444 1442 1432
1415 1409 1402 1397 1397 1394 1393 1397 1402 1408 1411 1415 1418 1421 1426 1431 1434 1439 1445 1452 1444 1416 1421 1426 1428 1429 1428 1428 1429 1432 1430 1433 1436 1439 1442 1438 1431 1431 1434 1441 1431 1436 1442 1437 1432 1438 1415
1410 1404 1398 1393 1392 1387 1385 1391 1396 1402 1404 1410 1414 1416 1420 1425 1429 1435 1442 1442 1423 1416 1419 1423 1426 1425 1424 1425 1426 1428 1426 1431 1427 1431 1438 1428 1426 1416 1420 1430 1431 1435 1443 1430 1429 1392 1413
1407 1400 1393 1389 1386 1380 1383 1385 1391 1395 1397 1404 1407 1411 1414 1419 1424 1430 1437 1427 1421 1417 1420 1421 1417 1417 1416 1420 1422 1419 1419 1413 1418 1421 1428 1429 1422 1410 1415 1425 1424 1425 1421 1437 1420 1406 1414
1403 1397 1390 1384 1377 1374 1377 1378 1382 1383 1391 1397 1402 1408 1409 1414 1421 1426 1422 1420 1416 1417 1418 1418 1406 1402 1401 1411 1411 1408 1410 1406 1405 1408 1422 1434 1438 1418 1415 1408 1409 1412 1417 1417 1403 1387 1398
1400 1393 1384 1378 1373 1372 1375 1371 1372 1375 1384 1392 1397 1403 1405 1410 1416 1414 1413 1412 1414 1411 1410 1410 1407 1399 1392 1398 1403 1405 1406 1404 1399 1405 1419 1428 1427 1414 1404 1397 1402 1404 1402 1398 1391 1397 1392
1398 1390 1383 1377 1372 1370 1369 1369 1368 1373 1379 1385 1391 1397 1401 1404 1404 1407 1409 1408 1410 1406 1403 1404 1395 1385 1385 1386 1398 1399 1400 1395 1398 1408 1412 1418 1418 1407 1405 1401 1398 1397 1394 1388 1389 1386 1400
1396 1389 1381 1373 1367 1364 1364 1357 1359 1369 1374 1383 1388 1392 1398 1400 1399 1399 1403 1402 1403 1402 1401 1399 1390 1384 1386 1387 1387 1395 1391 1391 1394 1398 1404 1409 1402 1402 1387 1376 1380 1395 1393 1388 1392 1400 1396
1393 1386 1379 1372 1367 1361 1357 1356 1355 1366 1371 1378 1381 1383 1386 1390 1395 1395 1396 1396 1396 1397 1391 1389 1384 1382 1384 1389 1389 1385 1392 1387 1392 1397 1405 1414 1393 1383 1367 1368 1378 1385 1391 1392 1395 1392 1401
1390 1386 1380 1374 1368 1362 1357 1355 1350 1360 1367 1371 1374 1379 1381 1382 1384 1390 1392 1389 1389 1391 1392 1382 1382 1379 1383 1385 1385 1385 1383 1386 1390 1394 1398 1400 1393 1379 1377 1375 1378 1386 1388 1390 1392 1395 1397
1390 1383 1379 1371 1367 1361 1357 1351 1352 1359 1363 1365 1369 1374 1376 1374 1377 1383 1381 1381 1380 1386 1385 1383 1382 1381 1380 1377 1381 1378 1378 1380 1383 1387 1394 1397 1395 1385 1392 1379 1382 1393 1385 1388 1392 1394 1396
1389 1382 1376 1371 1365 1358 1355 1351 1351 1359 1362 1363 1367 1372 1376 1375 1372 1370 1370 1368 1373 1376 1378 1376 1376 1380 1377 1375 1376 1378 1380 1381 1384 1387 1387 1394 1395 1393 1395 1386 1407 1384 1380 1379 1384 1387 1389
1386 1379 1373 1366 1361 1359 1354 1348 1349 1348 1357 1361 1364 1369 1371 1371 1369 1367 1365 1364 1369 1371 1369 1372 1371 1375 1375 1375 1378 1382 1389 1389 1392 1393 1392 1390 1393 1399 1403 1401 1388 1380 1382 1382 1384 1387 1383
1381 1376 1370 1364 1357 1353 1350 1348 1346 1350 1356 1359 1361 1365 1369 1371 1369 1368 1365 1367 1370 1367 1368 1367 1372 1374 1377 1381 1378 1385 1388 1390 1397 1397 1393 1391 1394 1403 1409 1406 1402 1388 1383 1381 1378 1397 1386
1380 1375 1371 1366 1360 1355 1350 1347 1346 1346 1352 1356 1358 1362 1366 1368 1366 1366 1365 1366 1368 1365 1365 1366 1369 1374 1376 1378 1374 1380 1382 1382 1390 1393 1397 1397 1402 1406 1407 1406 1398 1384 1384 1383 1395 1399 1388
1375 1370 1366 1362 1357 1353 1350 1347 1345 1346 1351 1354 1356 1360 1363 1364 1364 1364 1364 1365 1364 1365 1363 1364 1369 1373 1376 1376 1372 1374 1370 1374 1381 1385 1388 1392 1398 1400 1408 1409 1408 1383 1387 1390 1392 1390 1390
1372 1370 1365 1361 1356 1351 1346 1346 1343 1342 1348 1351 1354 1357 1360 1363 1362 1361 1362 1362 1361 1362 1361 1361 1360 1360 1365 1369 1371 1371 1369 1366 1366 1383 1383 1389 1384 1389 1393 1390 1382 1382 1384 1386 1389 1391 1393